DW6860 Weather Reports


Display with metric or nautical units.
time (UTC)temp
F
wind
direction
speed
MPH
gust
MPH
rain 1hr
in
rain 24hr
in
rain mn
in
humidity
%
barometer
mb
20260902182354 69 192 2.0 3.0 0.00 0.00 0.00 71 1018.9
20260902181351 69 268 2.0 4.0 0.00 0.00 0.00 71 1018.9
20260902181326 0 0.0 4.0 0.00 0.00 0.00
20260902180708 69 250 3.0 5.0 0.00 0.00 0.00 71 1019.0
20260902165947 69 195 3.0 5.0 0.00 0.00 0.00 71 1019.1
20260902164052 69 267 3.0 7.0 0.00 0.00 0.00 72 1019.1
20260902163551 69 200 3.0 7.0 0.00 0.00 0.00 72 1019.0
20260902163424 69 233 2.0 7.0 0.00 0.00 0.00 72 1019.1
20260902162537 69 227 3.0 7.0 0.00 0.00 0.00 71 1019.2
20260902162359 70 208 3.0 7.0 0.00 0.00 0.00 71 1019.3
20260902161536 70 207 3.0 6.0 0.00 0.00 0.00 71 1019.4
20260902161037 70 178 3.0 7.0 0.00 0.00 0.00 72 1019.4
20260902160919 69 194 2.0 7.0 0.00 0.00 0.00 72 1019.5
20260902160034 69 271 2.0 8.0 0.00 0.00 0.00 73 1019.4
20260902155532 69 218 3.0 8.0 0.00 0.00 0.00 73 1019.5
20260902155343 69 234 3.0 8.0 0.00 0.00 0.00 73 1019.4
20260902154529 69 239 3.0 7.0 0.00 0.00 0.00 73 1019.4
20260902154453 69 227 2.0 5.0 0.00 0.00 0.00 74 1019.5
20260902154446 69 216 3.0 7.0 0.00 0.00 0.00 73 1019.5
20260902153643 69 247 2.0 7.0 0.00 0.00 0.00 74 1019.5
20260902152529 69 236 2.0 6.0 0.00 0.00 0.00 75 1019.6
20260902152032 69 224 1.0 6.0 0.00 0.00 0.00 74 1019.6
20260902151528 69 229 1.0 4.0 0.00 0.00 0.00 75 1019.7
20260902151032 69 221 1.0 5.0 0.00 0.00 0.00 74 1019.6
20260902150527 69 242 2.0 5.0 0.00 0.00 0.00 74 1019.6
20260902150435 69 282 2.0 5.0 0.00 0.00 0.00 73 1019.7
20260902145527 69 220 2.0 7.0 0.00 0.00 0.00 73 1019.8
20260902145426 69 277 3.0 7.0 0.00 0.00 0.00 72 1019.8
20260902144917 69 243 3.0 7.0 0.00 0.00 0.00 72 1019.8
20260902144033 70 205 3.0 9.0 0.00 0.00 0.00 71 1019.7
20260902143522 70 292 4.0 9.0 0.00 0.00 0.00 69 1019.7
20260902143025 70 252 4.0 9.0 0.00 0.00 0.00 68 1019.7
20260902142524 70 180 4.0 9.0 0.00 0.00 0.00 67 1019.6
20260902142023 70 227 4.0 9.0 0.00 0.00 0.00 66 1019.6
20260902141520 70 250 4.0 8.0 0.00 0.00 0.00 66 1019.6
20260902141026 70 205 5.0 9.0 0.00 0.00 0.00 66 1019.7
20260902140524 71 186 5.0 10.0 0.00 0.00 0.00 65 1019.7
20260902140033 71 197 6.0 13.0 0.00 0.00 0.00 65 1019.7
20260902135517 71 189 5.0 13.0 0.00 0.00 0.00 64 1019.7
20260902135021 71 198 4.0 10.0 0.00 0.00 0.00 64 1019.6
20260902134521 71 191 4.0 10.0 0.00 0.00 0.00 64 1019.6
20260902134019 71 269 4.0 10.0 0.00 0.00 0.00 65 1019.7
20260902133521 71 228 4.0 9.0 0.00 0.00 0.00 65 1019.6
20260902133018 71 293 4.0 8.0 0.00 0.00 0.00 66 1019.6
20260902132517 71 234 4.0 11.0 0.00 0.00 0.00 66 1019.5
20260902132344 71 200 4.0 11.0 0.00 0.00 0.00 66 1019.6
20260902131520 71 211 3.0 8.0 0.00 0.00 0.00 65 1019.5
20260902131020 71 210 3.0 7.0 0.00 0.00 0.00 65 1019.5
20260902130519 72 186 4.0 8.0 0.00 0.00 0.00 64 1019.5
20260902130357 72 228 5.0 9.0 0.00 0.00 0.00 64 1019.5
20260902125518 72 178 4.0 9.0 0.00 0.00 0.00 63 1019.5
20260902125024 73 242 3.0 8.0 0.00 0.00 0.00 64 1019.5
20260902124520 73 202 4.0 9.0 0.00 0.00 0.00 65 1019.5
20260902124018 72 228 4.0 10.0 0.00 0.00 0.00 66 1019.5
20260902123848 71 245 3.0 10.0 0.00 0.00 0.00 66 1019.5
20260902123342 71 329 2.0 7.0 0.00 0.00 0.00 66 1019.5
20260902122512 71 313 3.0 9.0 0.00 0.00 0.00 67 1019.5
20260902122350 71 175 3.0 9.0 0.00 0.00 0.00 68 1019.6
20260902121502 71 346 2.0 9.0 0.00 0.00 0.00 68 1019.6
20260902121001 71 210 2.0 6.0 0.00 0.00 0.00 69 1019.6
20260902120502 70 192 3.0 8.0 0.00 0.00 0.00 69 1019.7
20260902120002 70 209 3.0 9.0 0.00 0.00 0.00 69 1019.7
20260902115501 70 223 3.0 9.0 0.00 0.00 0.00 70 1019.8
20260902115343 70 222 4.0 10.0 0.00 0.00 0.00 70 1019.7
20260902114501 70 234 5.0 10.0 0.00 0.00 0.00 70 1019.8
20260902114003 70 187 4.0 8.0 0.00 0.00 0.00 71 1019.9
20260902113851 70 211 4.0 9.0 0.00 0.00 0.00 70 1019.9
20260902113003 70 238 3.0 9.0 0.00 0.00 0.00 71 1019.9
20260902112843 70 200 3.0 10.0 0.00 0.00 0.00 71 1020.0
20260902112217 70 248 3.0 7.0 0.00 0.00 0.00 71 1020.0
20260902112122 70 236 4.0 10.0 0.00 0.00 0.00 71 1020.0
20260902111347 70 186 4.0 9.0 0.00 0.00 0.00 71 1019.9
20260902110832 70 283 4.0 9.0 0.00 0.00 0.00 71 1019.9
20260902110000 70 200 4.0 8.0 0.00 0.00 0.00 73 1019.9
20260902105459 70 208 4.0 8.0 0.00 0.00 0.00 72 1019.9
20260902105001 70 197 3.0 8.0 0.00 0.00 0.00 72 1019.9
20260902104458 70 279 4.0 9.0 0.00 0.00 0.00 73 1019.9
20260902104335 70 212 4.0 9.0 0.00 0.00 0.00 73 1019.9
20260902103459 70 200 4.0 8.0 0.00 0.00 0.00 74 1020.0
20260902103000 70 176 4.0 8.0 0.00 0.00 0.00 75 1020.0
20260902102457 69 240 4.0 8.0 0.00 0.00 0.00 77 1020.0
20260902101954 69 187 4.0 8.0 0.00 0.00 0.00 77 1020.1
20260902101453 69 207 4.0 8.0 0.00 0.00 0.00 78 1020.1
20260902101326 67 192 4.0 7.0 0.00 0.00 0.00 79 1020.1
20260902100841 68 215 4.0 9.0 0.00 0.00 0.00 79 1020.1
20260902095952 68 224 4.0 9.0 0.00 0.00 0.00 78 1020.1
20260902095450 68 228 3.0 10.0 0.00 0.00 0.00 79 1020.1
20260902094949 68 234 3.0 8.0 0.00 0.00 0.00 79 1020.1
20260902094825 67 281 3.0 8.0 0.00 0.00 0.00 79 1020.2
20260902094343 67 214 3.0 9.0 0.00 0.00 0.00 80 1020.2
20260902093449 67 161 3.0 9.0 0.00 0.00 0.00 81 1020.2
20260902092948 66 219 3.0 7.0 0.00 0.00 0.00 82 1020.2
20260902092445 66 243 4.0 8.0 0.00 0.00 0.00 82 1020.2
20260902091947 66 192 4.0 8.0 0.00 0.00 0.00 82 1020.3
20260902091446 65 190 5.0 9.0 0.00 0.00 0.00 83 1020.1
20260902090944 65 182 4.0 9.0 0.00 0.00 0.00 83 1020.1
20260902090444 65 184 4.0 9.0 0.00 0.00 0.00 83 1020.1
20260902085944 65 229 4.0 13.0 0.00 0.00 0.00 83 1020.0
20260902085444 65 219 4.0 13.0 0.00 0.00 0.00 84 1020.0
20260902084940 65 213 4.0 8.0 0.00 0.00 0.00 84 1019.9
20260902084729 64 184 4.0 9.0 0.00 0.00 0.00 85 1019.8
20260902084617 64 219 3.0 8.0 0.00 0.00 0.00 84 1019.9
20260902083438 64 192 4.0 9.0 0.00 0.00 0.00 85 1019.7
20260902083320 64 212 3.0 10.0 0.00 0.00 0.00 85 1019.8
20260902082441 63 227 4.0 10.0 0.00 0.00 0.00 86 1019.7
20260902081937 63 196 4.0 8.0 0.00 0.00 0.00 86 1019.7
20260902081434 63 196 4.0 8.0 0.00 0.00 0.00 86 1019.6
20260902080935 63 191 3.0 7.0 0.00 0.00 0.00 87 1019.6
20260902080801 62 194 4.0 8.0 0.00 0.00 0.00 87 1019.7
20260902075934 62 199 4.0 8.0 0.00 0.00 0.00 88 1019.7
20260902075432 62 210 5.0 8.0 0.00 0.00 0.00 88 1019.7
20260902074931 61 209 4.0 8.0 0.00 0.00 0.00 88 1019.5
20260902074429 61 229 4.0 9.0 0.00 0.00 0.00 89 1019.5
20260902073929 61 206 4.0 9.0 0.00 0.00 0.00 89 1019.5
20260902073428 60 222 4.0 9.0 0.00 0.00 0.00 89 1019.4
20260902072930 60 201 4.0 9.0 0.00 0.00 0.00 90 1019.4
20260902072431 60 194 4.0 9.0 0.00 0.00 0.00 90 1019.4
20260902071930 59 232 3.0 8.0 0.00 0.00 0.00 90 1019.4
20260902071429 59 195 3.0 8.0 0.00 0.00 0.00 90 1019.5
20260902070927 59 244 4.0 8.0 0.00 0.00 0.00 90 1019.3
20260902070424 58 238 4.0 8.0 0.00 0.00 0.00 90 1019.3
20260902065924 58 202 4.0 8.0 0.00 0.00 0.00 90 1019.3
20260902065429 58 207 4.0 8.0 0.00 0.00 0.00 90 1019.2
20260902064924 58 214 3.0 6.0 0.00 0.00 0.00 90 1019.3
20260902064422 57 217 4.0 7.0 0.00 0.00 0.00 90 1019.4
20260902064058 57 196 3.0 7.0 0.00 0.00 0.00 90 1019.5
20260902064023 57 190 4.0 7.0 0.00 0.00 0.00 90 1019.3
20260902063231 57 195 4.0 8.0 0.00 0.00 0.00 90 1019.4
20260902062421 56 199 3.0 8.0 0.00 0.00 0.00 90 1019.2
20260902061920 56 175 3.0 7.0 0.00 0.00 0.00 90 1019.3
20260902061420 56 234 2.0 5.0 0.00 0.00 0.00 89 1019.2
20260902060920 56 194 2.0 4.0 0.00 0.00 0.00 89 1019.2
20260902060420 56 187 2.0 4.0 0.00 0.00 0.00 89 1019.2
20260902055922 56 210 2.0 5.0 0.00 0.00 0.00 89 1019.2
20260902055748 56 210 2.0 5.0 0.00 0.00 0.00 89 1019.3
20260902054910 56 205 1.0 3.0 0.00 0.00 0.00 89 1019.2
20260902054408 56 205 1.0 2.0 0.00 0.00 0.00 88 1019.1
20260902053902 56 205 1.0 3.0 0.00 0.00 0.00 88 1019.2
20260902053403 56 205 1.0 3.0 0.00 0.00 0.00 88 1019.2
20260902052907 56 205 1.0 3.0 0.00 0.01 0.00 88 1019.1
20260902052406 56 205 1.0 3.0 0.00 0.02 0.00 88 1019.1
20260902051902 56 205 1.0 3.0 0.00 0.05 0.00 88 1019.0
20260902051401 56 205 1.0 4.0 0.00 0.09 0.00 88 1019.0
20260902050911 56 205 2.0 5.0 0.00 0.12 0.00 88 1019.0
20260902050405 56 205 1.0 5.0 0.00 0.15 0.00 88 1018.9
20260902045901 57 147 1.0 4.0 0.00 0.15 0.00 87 1019.0
20260902045401 57 142 1.0 2.0 0.00 0.15 0.00 87 1019.0
20260902044901 57 142 0.0 2.0 0.00 0.15 0.00 87 1018.9
20260902044403 57 142 0.0 2.0 0.00 0.15 0.00 87 1018.9
20260902043908 57 142 1.0 2.0 0.00 0.15 0.00 87 1018.9
20260902043410 57 142 1.0 2.0 0.00 0.16 0.00 87 1018.9
20260902043318 57 188 1.0 3.0 0.00 0.16 0.00 87 1019.0
20260902043313 57 214 0.0 3.0 0.00 0.16 0.00 87 1019.0
20260902043300 57 214 0.0 3.0 0.00 0.16 0.00 87 1019.0
20260902043249 57 214 1.0 3.0 0.00 0.16 0.00 86 1019.0
20260902043139 57 142 0.0 2.0 0.00 0.16 0.00 87 1019.0
20260902042605 57 171 1.0 3.0 0.00 0.16 0.00 87 1018.9
20260902041715 57 214 1.0 3.0 0.00 0.16 0.00 87 1019.1
20260902035334 57 214 1.0 3.0 0.00 0.16 0.00 86 1019.0
20260902034831 57 214 1.0 2.0 0.00 0.17 0.00 86 1019.0
20260902034333 57 214 0.0 4.0 0.00 0.17 0.00 86 1019.1
20260902033831 57 214 0.0 4.0 0.00 0.21 0.00 86 1019.1
20260902033329 57 214 0.0 2.0 0.00 0.28 0.00 86 1019.2
20260902033321 57 214 1.0 4.0 0.00 0.41 0.00 86 1019.2
20260902033313 57 214 0.0 2.0 0.00 0.32 0.00 86 1019.1
20260902031829 57 214 1.0 4.0 0.00 0.43 0.00 86 1019.1
20260902031330 57 214 1.0 3.0 0.00 0.43 0.00 86 1019.2
20260902031146 57 214 1.0 3.0 0.00 0.44 0.00 86 1019.2
20260902030329 57 214 0.0 3.0 0.00 0.45 0.00 86 1019.3
20260902025829 57 214 0.0 1.0 0.00 0.45 0.00 86 1019.3
20260902025329 57 214 0.0 2.0 0.00 0.45 0.00 86 1019.2
20260902024829 57 214 0.0 2.0 0.00 0.45 0.00 86 1019.3
20260902024334 58 214 1.0 2.0 0.00 0.45 0.00 86 1019.3
20260902023831 57 214 1.0 3.0 0.00 0.45 0.00 86 1019.3
20260902023700 57 214 0.0 3.0 0.00 0.45 0.00 86 1019.4
20260902022829 58 214 0.0 3.0 0.00 0.45 0.00 86 1019.3
20260902022331 58 214 1.0 3.0 0.00 0.45 0.00 86 1019.4
20260902021831 57 214 1.0 2.0 0.00 0.45 0.00 86 1019.5
20260902021331 58 214 1.0 4.0 0.00 0.45 0.00 86 1019.4
20260902020829 57 214 1.0 4.0 0.00 0.45 0.00 86 1019.5
20260902020332 57 214 1.0 3.0 0.00 0.45 0.00 86 1019.6
20260902015830 57 214 1.0 2.0 0.00 0.45 0.00 86 1019.4
20260902015333 57 214 1.0 2.0 0.00 0.45 0.00 86 1019.5
20260902014831 57 214 1.0 3.0 0.00 0.45 0.00 85 1019.5
20260902014323 57 214 1.0 3.0 0.00 0.45 0.00 85 1019.5
20260902013825 57 214 0.0 3.0 0.00 0.45 0.00 85 1019.5
20260902013326 57 214 0.0 2.0 0.00 0.45 0.00 85 1019.5
20260902012808 57 214 0.0 2.0 0.00 0.45 0.00 85 1019.5
20260902012308 57 214 1.0 3.0 0.00 0.45 0.00 85 1019.5
20260902011802 57 214 1.0 3.0 0.00 0.45 0.00 85 1019.6
20260902011633 57 214 1.0 3.0 0.00 0.45 0.00 85 1019.7
20260902010803 57 214 1.0 4.0 0.00 0.45 0.00 85 1019.7
20260902010303 57 214 1.0 4.0 0.00 0.45 0.00 85 1019.6
20260902005810 57 214 1.0 4.0 0.00 0.45 0.00 85 1019.6
20260902005622 57 214 1.0 3.0 0.00 0.45 0.00 85 1019.7
20260902004949 58 214 1.0 3.0 0.00 0.45 0.00 84 1019.8
20260902004911 57 214 1.0 3.0 0.00 0.45 0.00 84 1019.7
20260902003811 58 214 1.0 3.0 0.00 0.45 0.00 84 1019.7
20260902003307 58 214 0.0 3.0 0.00 0.45 0.00 84 1019.7
20260902003135 58 214 1.0 2.0 0.00 0.45 0.00 84 1019.6
20260902002308 58 214 1.0 2.0 0.00 0.45 0.00 84 1019.6
20260902001801 58 214 1.0 2.0 0.00 0.45 0.00 84 1019.7
20260902001302 58 214 0.0 2.0 0.00 0.45 0.00 84 1019.6
20260902000801 58 214 0.0 2.0 0.00 0.45 0.00 83 1019.5
20260902000304 58 289 0.0 1.0 0.00 0.46 0.00 83 1019.6
20260902000142 58 289 0.0 2.0 0.00 0.46 0.00 83 1019.7
20260901235307 58 289 0.0 2.0 0.00 0.49 0.00 83 1019.7
20260901234804 58 289 0.0 2.0 0.00 0.55 0.00 83 1019.7
20260901234312 58 289 0.0 2.0 0.00 0.57 0.00 83 1019.7
20260901233805 58 326 0.0 1.0 0.00 0.57 0.00 83 1019.7
20260901233303 58 326 0.0 0.0 0.00 0.57 0.00 83 1019.7
20260901232751 58 326 0.0 1.0 0.00 0.57 0.00 83 1019.8
20260901232241 58 326 0.0 1.0 0.00 0.57 0.00 83 1019.8
20260901231734 59 326 0.0 1.0 0.00 0.57 0.00 83 1019.8
20260901231235 59 326 0.0 0.0 0.00 0.57 0.00 82 1020.0
20260901230731 59 326 0.0 1.0 0.00 0.57 0.00 82 1019.9
20260901230229 59 326 0.0 1.0 0.00 0.57 0.00 82 1020.0
20260901225724 59 326 0.0 1.0 0.00 0.57 0.00 82 1019.9
20260901225219 59 326 0.0 0.0 0.00 0.57 0.00 82 1019.9
20260901224709 59 326 0.0 0.0 0.00 0.57 0.00 82 1019.9
20260901224202 59 326 0.0 1.0 0.00 0.57 0.00 82 1019.9
20260901224027 59 326 0.0 1.0 0.00 0.57 0.00 81 1019.9
20260901223201 60 326 0.0 1.0 0.00 0.57 0.00 81 1020.0
20260901222704 60 326 0.0 1.0 0.00 0.57 0.00 81 1020.0
20260901222208 60 326 0.0 1.0 0.00 0.57 0.00 81 1020.0
20260901221703 60 326 0.0 1.0 0.00 0.57 0.00 81 1020.0
20260901221202 60 326 0.0 0.0 0.00 0.57 0.00 81 1019.9
20260901220709 60 326 0.0 0.0 0.00 0.57 0.00 80 1019.8
20260901220206 60 326 0.0 0.0 0.00 0.57 0.00 80 1019.9
20260901215706 60 326 0.0 0.0 0.00 0.57 0.57 80 1019.9
20260901215206 60 326 0.0 1.0 0.00 0.57 0.57 80 1019.9
20260901214657 60 326 0.0 1.0 0.00 0.57 0.57 80 1019.9
20260901214152 61 326 0.0 0.0 0.00 0.57 0.57 80 1019.8
20260901213636 61 326 0.0 0.0 0.00 0.57 0.57 79 1019.9
20260901213316 61 326 0.0 0.0 0.00 0.57 0.57 79 1020.0
20260901213243 61 326 0.0 0.0 0.00 0.57 0.57 79 1019.9
20260901212131 61 326 0.0 0.0 0.00 0.57 0.57 79 1020.2
20260901211629 61 326 0.0 0.0 0.00 0.57 0.57 79 1020.4
20260901211129 61 326 0.0 0.0 0.00 0.57 0.57 78 1020.3
20260901210629 62 326 0.0 0.0 0.00 0.57 0.57 78 1020.5
20260901210135 62 326 0.0 0.0 0.00 0.57 0.57 78 1020.4
20260901205630 62 326 0.0 1.0 0.00 0.57 0.57 78 1020.4
20260901205131 62 326 0.0 1.0 0.00 0.57 0.57 77 1020.4
20260901204628 62 326 0.0 0.0 0.00 0.57 0.57 77 1020.3
20260901204438 62 326 0.0 0.0 0.00 0.57 0.57 76 1020.3
20260901203609 63 326 0.0 1.0 0.00 0.57 0.57 76 1020.3
20260901203110 63 326 0.0 1.0 0.00 0.57 0.57 76 1020.2
20260901202613 63 326 0.0 0.0 0.00 0.57 0.57 76 1020.3
20260901202111 63 326 0.0 0.0 0.00 0.57 0.57 75 1020.3
20260901201604 64 326 0.0 0.0 0.00 0.57 0.57 75 1020.3
20260901201103 64 326 0.0 0.0 0.00 0.57 0.57 74 1020.3
20260901200613 64 326 0.0 0.0 0.00 0.57 0.57 73 1020.3
20260901200105 64 326 0.0 0.0 0.00 0.57 0.57 73 1020.2
20260901195605 64 326 0.0 1.0 0.00 0.57 0.57 73 1020.2
20260901195105 64 326 0.0 1.0 0.00 0.57 0.57 73 1020.2
20260901194612 64 326 0.0 1.0 0.00 0.57 0.57 73 1020.2
20260901194057 65 326 0.0 0.0 0.00 0.57 0.57 73 1020.1
20260901193551 65 326 0.0 0.0 0.00 0.57 0.57 72 1020.0
20260901193045 65 326 0.0 0.0 0.00 0.57 0.57 71 1020.0
20260901192537 65 326 0.0 0.0 0.00 0.57 0.57 71 1019.8
20260901192035 65 326 0.0 0.0 0.00 0.57 0.57 70 1019.8
20260901191532 65 326 0.0 1.0 0.00 0.57 0.57 70 1020.0
20260901191032 66 326 0.0 1.0 0.00 0.57 0.57 69 1019.9
20260901190534 66 326 0.0 1.0 0.00 0.57 0.57 69 1020.0
20260901190438 67 326 0.0 1.0 0.00 0.57 0.57 68 1020.0
20260901190434 67 326 0.0 1.0 0.00 0.57 0.57 66 1019.8
20260901190425 68 321 1.0 4.0 0.00 0.57 0.57 65 1019.7
20260901190421 69 9 2.0 8.0 0.00 0.57 0.57 63 1019.9
20260901190417 70 344 2.0 5.0 0.00 0.57 0.57 62 1019.8
20260901190239 66 326 0.0 1.0 0.00 0.57 0.57 69 1019.9
20260901190027 66 326 0.0 1.0 0.00 0.57 0.57 69 1019.9
20260901185444 67 326 0.0 1.0 0.00 0.57 0.57 68 1019.8
20260901185306 67 326 0.0 1.0 0.00 0.57 0.57 67 1019.7
20260901184714 67 326 0.0 2.0 0.00 0.57 0.57 66 1019.8
20260901184523 67 326 0.0 2.0 0.00 0.57 0.57 66 1019.8
20260901184331 67 292 0.0 2.0 0.00 0.57 0.57 66 1019.8
20260901184139 68 321 0.0 2.0 0.00 0.57 0.57 66 1019.8
20260901183940 68 321 0.0 3.0 0.00 0.57 0.57 66 1019.8
20260901183333 68 304 1.0 4.0 0.00 0.57 0.57 65 1019.8
20260901183105 68 315 1.0 4.0 0.00 0.57 0.57 65 1019.8